This is the latest recevied weather packets stored in our database for station/object DF9PV-5. If no packets are shown the sender has not sent any weather packets the latest 10 day(s).
| Time | Temp. | Humidity | Pressure | Rain* | Wind** | Luminosity | Snow |
|---|---|---|---|---|---|---|---|
| 1777539025 | 13.89° C | 29% | 1028.5 hPa | 0 mm | - | - | - |
| 1777538129 | 13.33° C | 31% | 1028.6 hPa | 0 mm | - | - | - |
| 1777535129 | 12.22° C | 33% | 1028.7 hPa | 0 mm | - | - | - |
| 1777533921 | 11.67° C | 33% | 1028.7 hPa | 0 mm | - | - | - |
| 1777532453 | 11.11° C | 34% | 1028.7 hPa | 0 mm | - | - | - |
| 1777532129 | 11.11° C | 34% | 1028.7 hPa | 0 mm | - | - | - |
| 1777531521 | 11.11° C | 34% | 1028.7 hPa | 0 mm | - | - | - |
| 1777531233 | 10.56° C | 35% | 1028.7 hPa | 0 mm | - | - | - |
| 1777530625 | 10.56° C | 34% | 1028.5 hPa | 0 mm | - | - | - |
| 1777529425 | 10° C | 36% | 1028.5 hPa | 0 mm | - | - | - |
| 1777527633 | 8.89° C | 37% | 1028.4 hPa | 0 mm | - | - | - |
| 1777527025 | 8.89° C | 38% | 1028.4 hPa | 0 mm | - | - | - |
| 1777526433 | 7.78° C | 40% | 1028.4 hPa | 0 mm | - | - | - |
| 1777525825 | 7.78° C | 41% | 1028.5 hPa | 0 mm | - | - | - |
| 1777524945 | 7.22° C | 42% | 1028.4 hPa | 0 mm | - | - | - |
| 1777524625 | 7.22° C | 42% | 1028.4 hPa | 0 mm | - | - | - |
| 1777524033 | 6.67° C | 44% | 1028.4 hPa | 0 mm | - | - | - |
| 1777521921 | 7.22° C | 43% | 1028.2 hPa | 0 mm | - | - | - |
| 1777521041 | 7.22° C | 43% | 1028.1 hPa | 0 mm | - | - | - |
| 1777517728 | 7.78° C | 43% | 1028 hPa | 0 mm | - | - | - |
| 1777517121 | 7.78° C | 43% | 1027.8 hPa | 0 mm | - | - | - |
| 1777516225 | 7.78° C | 44% | 1027.9 hPa | 0 mm | - | - | - |
| 1777515349 | 8.33° C | 42% | 1027.8 hPa | 0 mm | - | - | - |
| 1777515025 | 8.33° C | 42% | 1027.7 hPa | 0 mm | - | - | - |
| 1777514433 | 8.89° C | 40% | 1027.8 hPa | 0 mm | - | - | - |
* Rain latest hour (hover to see other rain measurements)
** Current wind speed in m/s (hover to see current wind gust speed)